Regional Weather Roundup
Issued by NWS

Home | Current Version | Previous Version | Text Only | Print | Product List | Glossary Off
Versions: 1 2 3 4 5 6 7 8 9 10 11 12 13 14 15 16 17 18 19 20 21 22 23 24 25 26 27 28 29 30 31 32 33 34 35 36 37 38 39 40 41 42 43 44 45 46 47 48 49 50

000
ASUS43 KIND 291609
RWRIN

WEATHER ROUNDUP FOR INDIANA
NATIONAL WEATHER SERVICE INDIANAPOLIS IN
1200 PM EDT TUE JUL 29 2014

NOTE: "FAIR" INDICATES FEW OR NO CLOUDS BELOW 12,000 FEET WITH NO
SIGNIFICANT WEATHER AND/OR OBSTRUCTIONS TO VISIBILITY.

* - STATION DOES NOT REPORT WEATHER SUCH AS PRECIPITATION OR FOG.

+ - STATION NOT QUALITY CONTROLLED BY THE NATIONAL WEATHER SERVICE.
    USE DATA WITH CAUTION...ESPECIALLY DEWPOINT AND RELATIVE
    HUMIDITY OBSERVATIONS.

INZ001>003-010>013-019-020-291700-
NORTHWEST INDIANA

CITY           SKY/WX    TMP DP  RH WIND       PRES   REMARKS
GARY /AIRPORT/ MOSUNNY   75  55  50 W12       30.05S
KNOX *+        MOSUNNY   70  54  56 W8        30.04S
LA PORTE +     MOSUNNY   70  56  61 W8        30.05S
MICHIGAN CITY+ PTSUNNY   68  55  64 NW6       30.05S
MONTICELLO +   SUNNY     69  57  65 SW6       30.06S
RENSSELAER +   SUNNY     72  61  68 W7        30.07S
VALPARAISO     MOSUNNY   71  56  58 W7        30.05S

$$

LMZ046-743>745-291700-
SOUTHERN LAKE MICHIGAN

STATION/POSITION TIME  TEMP WIND        PRES
                       AIR  DIR/SP/G
                 (UTC) (F)  (DEG/KT/KT) (MB)
MICHIGAN CITY    1600   65  250/  9/ 12   N/A

$$

INZ004-005-014>016-021>024-291700-
NORTH CENTRAL INDIANA

CITY           SKY/WX    TMP DP  RH WIND       PRES   REMARKS
GOSHEN         CLOUDY    65  54  67 SW8       30.05S
LOGANSPORT +   MOSUNNY   70  54  56 SW8       30.08S
PERU/GRISSOM   MOSUNNY   69  58  68 SW6       30.07S
ROCHESTER +    SUNNY     70  52  52 SW9       30.07S
SOUTH BEND     MOSUNNY   70  55  59 SW9       30.05R
WARSAW +       PTSUNNY   64  54  68 W6        30.05F

$$

INZ006>009-017-018-025>027-291700-
NORTHEAST INDIANA

CITY           SKY/WX    TMP DP  RH WIND       PRES   REMARKS
ANGOLA *+      MOSUNNY   66  57  72 W7        30.04F
AUBURN +       PTSUNNY   64  50  59 CALM      30.06S
FORT WAYNE     PTSUNNY   67  52  58 W6        30.07S
HUNTINGTON +   CLOUDY    67  53  59 SW6       30.06S

$$

INZ028-029-035-036-043>045-051>053-291700-
WEST CENTRAL INDIANA

CITY           SKY/WX    TMP DP  RH WIND       PRES   REMARKS
GREENCASTLE +  SUNNY     68  55  64 NE3       30.10R
LAFAYETTE      SUNNY     69  56  62 SW6       30.07S
TERRE HAUTE    SUNNY     71  57  61 VRB6      30.10R

$$

INZ030>032-037>040-046>048-054>057-064-065-291700-
CENTRAL INDIANA

CITY           SKY/WX    TMP DP  RH WIND       PRES   REMARKS
ANDERSON       SUNNY     66  50  55 NW12      30.09S
CP ATTERBURY + SUNNY     70  52  52 NW5       30.10R
COLUMBUS       SUNNY     66  54  63 N5        30.09R
GREENWOOD *+   SUNNY     70  57  64 NW5       30.09
INDIANAPOLIS   SUNNY     70  52  52 VRB3      30.09S
-EAGLE CREEK   SUNNY     69  52  54 CALM      30.08S
KOKOMO *+      MOSUNNY   68  54  60 W7        30.08R
MARION +       MOSUNNY   67  51  57 NW3       30.08S
MT COMFORT *+  SUNNY     70  57  64 N3        30.09R
SHELBYVILLE    SUNNY     70  53  54 NW5       30.08S
ZIONSVILLE +   SUNNY     68  50  52 CALM      30.09S

$$

INZ033-034-041-042-049-050-058-059-291700-
EAST CENTRAL INDIANA

CITY           SKY/WX    TMP DP  RH WIND       PRES   REMARKS
MUNCIE         SUNNY     68  52  56 VRB7      30.08S

$$

INZ060-061-067>069-081>083-085>088-291700-
SOUTHWEST INDIANA

CITY           SKY/WX    TMP DP  RH WIND       PRES   REMARKS
EVANSVILLE     SUNNY     73  54  51 W9        30.12S
WASHINGTON +   SUNNY     69  58  68 W7        30.10S

$$

INZ062-063-066-070>080-084-089>092-291700-
SOUTH CENTRAL AND SOUTHEAST INDIANA

CITY           SKY/WX    TMP DP  RH WIND       PRES   REMARKS
BLOOMINGTON    SUNNY     68  54  60 SW3       30.10R

$$




USA.gov is the U.S. government's official web portal to all federal, state and local government web resources and services.